N5SOR-2 Weather Reports


time (UTC)temp
F
wind
direction
speed
knots
gust
knots
rain 1hr
in
rain 24hr
in
rain mn
in
humidity
%
barometer
mb
20210414101039 47 359 11.3 14.8 0.00 0.00 0.00 91 1019.9
20210414095924 46 359 11.3 16.5 0.00 0.00 0.00 92 1019.9
20210414094436 45 359 8.7 14.8 0.00 0.00 0.00 92 1020.0
20210414093135 44 359 6.1 11.3 0.00 0.00 0.00 92 1020.1
20210414092045 43 359 8.7 13.9 0.00 0.00 0.00 92 1020.1
20210414090533 46 359 10.4 13.9 0.00 0.00 0.00 92 1020.0
20210414085651 47 359 14.8 20.9 0.00 0.00 0.00 92 1020.0
20210414083932 46 359 13.9 19.1 0.00 0.00 0.00 92 1019.9
20210414082759 45 359 9.6 17.4 0.00 0.00 0.00 92 1020.3
20210414081330 45 359 7.0 13.9 0.00 0.00 0.00 91 1020.5
20210414080052 45 359 7.0 11.3 0.00 0.00 0.00 91 1020.7
20210414074856 45 359 8.7 11.3 0.00 0.00 0.00 90 1020.8
20210414073446 46 359 10.4 17.4 0.00 0.00 0.00 88 1020.8
20210414072548 46 359 9.6 12.2 0.00 0.00 0.00 83 1020.8
20210414065906 47 359 7.0 11.3 0.00 0.00 0.00 70 1020.8
20210414064225 48 359 7.0 9.6 0.00 0.00 0.00 69 1020.9
20210414062948 49 359 9.6 16.5 0.00 0.00 0.00 69 1020.6
20210414061624 45 359 7.0 9.6 0.00 0.00 0.00 73 1020.7
20210414060419 46 359 8.7 12.2 0.00 0.00 0.00 71 1020.5
20210414055238 46 359 9.6 14.8 0.00 0.00 0.00 72 1020.4
20210414053727 46 359 7.8 10.4 0.00 0.00 0.00 71 1020.4
20210414052824 46 359 7.8 9.6 0.00 0.00 0.00 70 1020.4
20210414051120 44 359 5.2 8.7 0.00 0.00 0.00 74 1020.3
20210414050150 43 359 5.2 7.8 0.00 0.00 0.00 75 1020.3
20210414044521 42 359 4.3 5.2 0.00 0.00 0.00 76 1020.0
20210414043239 42 359 0.9 5.2 0.00 0.00 0.00 76 1020.1
20210414042108 42 359 1.7 5.2 0.00 0.00 0.00 75 1019.8
20210414040659 42 359 0.0 3.5 0.00 0.00 0.00 75 1019.9
20210414035914 42 359 0.0 0.0 0.00 0.00 0.00 74 1019.9
20210414034026 43 359 1.7 4.3 0.00 0.00 0.00 74 1019.7
20210414033222 43 359 0.9 5.2 0.00 0.00 0.00 75 1019.6
20210414031423 43 359 1.7 8.7 0.00 0.00 0.00 74 1019.5
20210414030141 43 359 1.7 7.8 0.00 0.00 0.00 74 1019.4
20210414024918 43 359 1.7 4.3 0.00 0.00 0.00 74 1019.3
20210414023523 44 359 1.7 5.2 0.00 0.00 0.00 74 1019.0
20210414022739 44 359 0.9 4.3 0.00 0.00 0.00 74 1018.9
20210414020911 44 359 0.0 3.5 0.00 0.00 0.00 72 1018.8
20210414020000 44 359 0.0 1.7 0.00 0.00 0.00 70 1018.9
20210414014313 45 359 0.0 0.0 0.00 0.00 0.00 70 1018.8
20210414011707 46 359 0.0 2.6 0.00 0.00 0.00 67 1017.9
20210414010414 47 359 0.0 2.6 0.00 0.00 0.00 65 1018.1
20210414005933 47 359 0.0 1.7 0.00 0.00 0.00 63 1018.1
20210414003833 49 359 0.0 0.9 0.00 0.00 0.00 60 1018.2
20210414001216 52 359 0.0 0.0 0.00 0.00 0.00 54 1018.2
20210413234602 52 359 0.0 0.9 0.00 0.00 0.00 53 1018.3
20210413233306 53 359 0.0 1.7 0.00 0.00 0.00 52 1018.3
20210413232258 52 359 0.0 1.7 0.00 0.00 0.00 53 1018.2
20210413230708 52 359 0.0 1.7 0.00 0.00 0.00 54 1018.1
20210413225923 52 359 0.0 1.7 0.00 0.00 0.00 53 1018.0
20210413224102 52 359 0.0 2.6 0.00 0.00 0.00 52 1017.9
20210413223033 53 359 0.0 2.6 0.00 0.00 0.00 50 1017.9
20210413221456 53 359 0.0 2.6 0.00 0.00 0.00 50 1018.0
20210413220434 52 359 0.9 4.3 0.00 0.00 0.00 51 1018.0
20210413215210 52 359 0.0 7.8 0.00 0.00 0.00 50 1018.2
20210413213554 52 359 0.0 1.7 0.00 0.00 0.00 52 1018.5
20210413212847 53 359 0.0 0.9 0.00 0.00 0.00 51 1018.5
20210413210953 52 359 0.0 4.3 0.00 0.00 0.00 51 1018.6
20210413205855 52 359 0.0 2.6 0.00 0.00 0.00 51 1018.8
20210413204350 51 359 0.0 1.7 0.00 0.00 0.00 55 1019.0
20210413203143 51 359 0.0 3.5 0.00 0.00 0.00 51 1018.9
20210413201922 50 359 0.0 3.5 0.00 0.00 0.00 53 1019.0
20210413200522 49 359 0.0 2.6 0.00 0.00 0.00 53 1019.2
20210413195511 52 359 0.9 7.8 0.00 0.00 0.00 51 1019.4
20210413193850 50 359 0.9 5.2 0.00 0.00 0.00 52 1019.6
20210413192955 49 359 0.9 8.7 0.00 0.00 0.00 54 1019.5
20210413191245 48 359 0.9 3.5 0.00 0.00 0.00 55 1019.5
20210413190105 49 359 0.9 5.2 0.00 0.00 0.00 52 1019.6
20210413184651 50 359 0.9 4.3 0.00 0.00 0.00 52 1019.5
20210413183345 49 359 1.7 7.0 0.00 0.00 0.00 53 1019.5
20210413182337 46 359 1.7 11.3 0.00 0.00 0.00 57 1019.5
20210413180742 45 359 1.7 4.3 0.00 0.00 0.00 58 1019.4
20210413175741 46 359 1.7 7.8 0.00 0.00 0.00 57 1019.7
20210413174141 46 359 1.7 9.6 0.00 0.00 0.00 58 1019.7
20210413173012 46 359 2.6 9.6 0.00 0.00 0.00 58 1020.1
20210413171551 46 359 1.7 7.8 0.00 0.00 0.00 58 1020.2
20210413170249 45 359 2.6 12.2 0.00 0.00 0.00 59 1020.3
20210413165155 45 359 1.7 4.3 0.00 0.00 0.00 60 1020.3
20210413163636 43 359 2.6 7.0 0.00 0.00 0.00 62 1020.1
20210413162941 43 359 1.7 9.6 0.00 0.00 0.00 62 1020.1
20210413161035 42 359 1.7 7.8 0.00 0.00 0.00 64 1019.8
20210413160111 41 359 1.7 8.7 0.00 0.00 0.00 66 1019.8
20210413154433 41 359 1.7 7.0 0.00 0.00 0.00 66 1020.0
20210413153155 39 359 1.7 5.2 0.00 0.00 0.00 69 1019.9
20210413151958 39 359 1.7 4.3 0.00 0.00 0.00 70 1019.8
20210413150100 38 359 2.6 5.2 0.00 0.00 0.00 68 1019.5
20210413143929 38 359 0.9 3.5 0.00 0.00 0.00 68 1019.5
20210413143056 39 359 0.9 3.5 0.00 0.00 0.00 65 1019.3
20210413140145 38 359 1.7 4.3 0.00 0.00 0.00 65 1019.0
20210413134746 38 359 0.9 7.0 0.00 0.00 0.00 65 1018.8
20210413133427 38 359 0.9 3.5 0.00 0.00 0.00 65 1018.5
20210413132732 37 359 0.9 4.3 0.00 0.00 0.00 65 1018.3
20210413130825 37 359 0.9 4.3 0.00 0.00 0.00 65 1018.0
20210413130109 37 359 0.9 5.2 0.00 0.00 0.00 65 1017.7
20210413124228 38 359 0.9 7.0 0.00 0.00 0.00 64 1017.7
20210413121636 38 359 1.7 8.7 0.00 0.00 0.00 64 1017.1
20210413120321 38 359 0.9 3.5 0.00 0.00 0.00 66 1016.7
20210413115931 38 359 0.9 7.0 0.00 0.00 0.00 66 1016.5
20210413113719 38 359 1.7 2.6 0.00 0.00 0.00 65 1016.3
20210413111123 38 359 0.0 4.3 0.00 0.00 0.00 64 1015.7
20210413104528 38 359 0.9 3.5 0.00 0.00 0.00 65 1014.9
20210413103530 38 359 0.9 2.6 0.00 0.00 0.00 65 1014.8